[[{"header":{"parameterUnit":"m.s-1","parameterCategory":1,"la1":30.2991,"la2":30.254,"lo1":-89.0895,"lo2":-89.0444,"dy":0.0017,"dx":0.0017,"nx":28,"ny":28,"refTime":"2023-09-25T09:00:00:Z","depth":0,"parameterNumber":2,"parameterNumberName":"U-component_of_WINDS"},"data":[0,0,0,0,0,0,0,0,0,0,0,0,0,0,0,0,0,0,0,0,0,0,0,0,0,0,0,0,0,0,0,0,0,0,0,0,0,0,0,0,0,0,0,0,0,0,0,0,0,0,0,0,0,0,0,0,0,0,0.5547,0.5546,0,0.5517,0.5517,0.5517,0.5528,0.5529,0.5529,0.553,0.5496,0.5495,0.5493,0,0,0,0,0,0,0,0,0,0,0,0,0,0.561,0.5608,0.5547,0.5546,0.5546,0.5517,0.5517,0.5516,0.5528,0.5529,0.5529,0.553,0.5497,0.5495,0.5493,0,0,0,0,0,0,0,0,0,0,0,0,0,0.5581,0.5608,0.5547,0.5548,0.5548,0.5517,0.5517,0.5516,0.5528,0.5529,0.553,0.5531,0.5497,0.5495,0.5493,0.5458,0,0,0.5486,0.5485,0,0,0,0,0,0,0,0,0.5583,0.5579,0.5548,0.5548,0.5548,0.5527,0.5527,0.5497,0.5527,0.5535,0.553,0.5531,0.5506,0.5503,0.5495,0.5457,0.5455,0.5486,0.5484,0.5483,0.5483,0,0,0,0,0,0,0,0.5585,0.558,0.5535,0.5548,0.5548,0.5549,0.5546,0.5521,0.5515,0.5535,0.5535,0.5532,0.5506,0.5497,0.5494,0.5455,0.5486,0.5484,0.5482,0.5481,0.5385,0.5384,0,0,0,0,0,0,0.5587,0.5582,0.5536,0.5534,0.5568,0.5547,0.5544,0.5533,0.5515,0.5514,0.5531,0.5533,0.55,0.5497,0.5493,0.545,0.5483,0.5481,0.548,0.5387,0.5385,0.5384,0,0,0,0,0,0,0.5589,0.5583,0.5537,0.5558,0.5553,0.5545,0.5532,0.5532,0.5523,0.5513,0.5511,0.5524,0.5501,0.5496,0.5467,0.5449,0.548,0.5478,0.5388,0.5386,0.5385,0.5365,0,0,0,0,0,0,0.5591,0.5584,0.5571,0.5558,0.5551,0.5512,0.5531,0.553,0.5519,0.5521,0.5505,0.5503,0.5502,0.547,0.5464,0.5447,0.5476,0.539,0.5387,0.5385,0.5367,0.5363,0.5359,0,0,0,0,0,0.5593,0.5566,0.557,0.5565,0.5536,0.5511,0.5507,0.5507,0.5518,0.5505,0.5498,0.5504,0.5453,0.5467,0.5461,0.5442,0.5391,0.5388,0.5385,0.5369,0.5364,0.536,0,0,0,0,0,0,0.5576,0.5564,0.5569,0.5538,0.5525,0.5513,0.5496,0.5501,0.5485,0.5487,0.5486,0.5482,0.5451,0.5444,0.546,0.5407,0.5423,0.5419,0.5413,0.5408,0.5404,0.5406,0.5474,0,0,0,0,0,0.5569,0.5551,0.5542,0.5515,0.5509,0.5504,0.5493,0.5494,0.548,0.5475,0.5466,0.5452,0.5433,0.542,0.5402,0.5367,0.5363,0.5351,0.5347,0.5344,0.534,0.532,0.5314,0.5375,0.5375,0.5375,0,0,0.5554,0.5545,0.5534,0.5511,0.5502,0.5483,0.5499,0.5478,0.5463,0.5471,0.5443,0.5436,0.5421,0.5388,0.5373,0.5381,0.5322,0.534,0.5338,0.5336,0.5317,0.5311,0.5306,0.5374,0.5374,0.5374,0,0,0.5516,0.5508,0.5485,0.5475,0.5461,0.5458,0.5453,0.544,0.5436,0.5408,0.5414,0.5396,0.5362,0.5351,0.5341,0.5299,0.5303,0.5293,0.5272,0.5252,0.5247,0.5243,0.5227,0.5222,0.5289,0.5289,0.5289,0,0.5498,0.547,0.5472,0.545,0.544,0.5448,0.5423,0.5414,0.5394,0.5386,0.5395,0.5354,0.5344,0.5309,0.5299,0.529,0.5283,0.5294,0.5248,0.5244,0.524,0.5225,0.5219,0.5288,0.5288,0.5288,0.5289,0,0.5449,0.543,0.5412,0.5394,0.5382,0.5359,0.5356,0.5343,0.5345,0.534,0.5311,0.53,0.5279,0.5271,0.5272,0.5235,0.524,0.5249,0.5265,0.5233,0.5218,0.5213,0.5286,0.5287,0.5287,0.5288,0,0,0.5399,0.5383,0.5376,0.5368,0.5354,0.5338,0.5315,0.5296,0.5285,0.5271,0.5251,0.5223,0.5231,0.5219,0.5219,0.5202,0.5169,0.5213,0.5212,0.5204,0.5126,0.5119,0.5113,0.5172,0.5171,0.517,0.5127,0,0.5359,0.5321,0.5321,0.5285,0.5266,0.5274,0.5254,0.5242,0.5237,0.522,0.5214,0.5194,0.5207,0.52,0.5183,0.5176,0.5153,0.5179,0.5152,0.5151,0.5155,0.5105,0.5098,0.5058,0.5122,0.5121,0.512,0,0.5308,0.5294,0.5256,0.5244,0.5236,0.5218,0.52,0.5184,0.5171,0.5169,0.5156,0.5158,0.5134,0.5151,0.5117,0.5135,0.5124,0.5119,0.5117,0.5114,0.5133,0.5099,0.5046,0.5039,0.5112,0.5112,0.5113,0,0.5274,0.5245,0.5219,0.5212,0.5197,0.5185,0.5178,0.5166,0.5154,0.5138,0.513,0.5112,0.5101,0.5086,0.5083,0.5096,0.5048,0.5065,0.5044,0.5044,0.5033,0.5033,0.4975,0.5027,0.5027,0.5028,0.5028,0,0.5229,0.5206,0.5204,0.5187,0.516,0.5161,0.5134,0.5128,0.5117,0.5099,0.5104,0.5086,0.5084,0.5065,0.5063,0.5034,0.503,0.5026,0.5025,0.5025,0.5025,0.5017,0.5019,0.5026,0.5026,0.5027,0.5027,0,0.5187,0.5185,0.5156,0.5145,0.5142,0.5123,0.5113,0.5096,0.5093,0.5069,0.5064,0.5057,0.5035,0.5031,0.5005,0.5004,0.4969,0.4972,0.4974,0.4974,0.4952,0.4954,0.4886,0.4876,0.4936,0.4935,0.4935,0,0.5158,0.514,0.5128,0.5116,0.5109,0.5091,0.5079,0.5079,0.5067,0.505,0.5035,0.5015,0.4998,0.4963,0.4955,0.4935,0.4936,0.4914,0.4933,0.4933,0.4934,0.4935,0.4933,0.4909,0.4909,0.4908,0.4908,0,0.5106,0.5106,0.509,0.5074,0.506,0.5047,0.5034,0.5024,0.5022,0.5007,0.4986,0.4973,0.4947,0.4926,0.4906,0.4898,0.4902,0.4902,0.4896,0.4895,0.4896,0.4894,0.4963,0.4903,0.4904,0.4904,0.4904,0.4905,0.5069,0.5053,0.5042,0.5024,0.5014,0.5002,0.4987,0.4981,0.4964,0.4943,0.4944,0.492,0.4907,0.4881,0.4871,0.4851,0.4858,0.485,0.4847,0.4845,0.4842,0.49,0.4848,0.4848,0.4848,0.4848,0.4848,0,0.5017,0.501,0.4994,0.4976,0.4961,0.4969,0.4955,0.4941,0.4921,0.4908,0.4892,0.4867,0.4846,0.4837,0.4817,0.4803,0.4804,0.4797,0.4797,0.4795,0.4838,0.4845,0.4796,0.4796,0.4796,0.4796,0.4796,0.4796,0.4988,0.4962,0.496,0.4929,0.4922,0.49,0.4891,0.4879,0.487,0.4842,0.4825,0.482,0.4808,0.4787,0.4768,0.4766,0.4757,0.4749,0.4747,0.4787,0.4792,0.4797,0.4804,0.4748,0.4747,0.4706,0.4706,0.4706]},{"header":{"parameterUnit":"m.s-1","parameterCategory":1,"la1":30.2991,"la2":30.254,"lo1":-89.0895,"lo2":-89.0444,"dy":0.0017,"dx":0.0017,"nx":28,"ny":28,"refTime":"2023-09-25T09:00:00:Z","depth":0,"parameterNumber":3,"parameterNumberName":"V-component_of_WINDS"},"data":[0,0,0,0,0,0,0,0,0,0,0,0,0,0,0,0,0,0,0,0,0,0,0,0,0,0,0,0,0,0,0,0,0,0,0,0,0,0,0,0,0,0,0,0,0,0,0,0,0,0,0,0,0,0,0,0,0,0,0.6815,0.6815,0,0.6836,0.6836,0.6836,0.6852,0.6852,0.6852,0.6853,0.6874,0.6875,0.6875,0,0,0,0,0,0,0,0,0,0,0,0,0,0.6787,0.6788,0.6815,0.6815,0.6815,0.6836,0.6836,0.6836,0.6852,0.6852,0.6852,0.6853,0.6874,0.6874,0.6875,0,0,0,0,0,0,0,0,0,0,0,0,0,0.6803,0.6788,0.6815,0.6826,0.6827,0.6836,0.6836,0.6837,0.6852,0.6852,0.6852,0.6853,0.6874,0.6874,0.6875,0.6875,0,0,0.6877,0.6877,0,0,0,0,0,0,0,0,0.6802,0.6804,0.6824,0.6825,0.6826,0.6842,0.6834,0.6849,0.6852,0.6842,0.6853,0.6853,0.6863,0.6865,0.6868,0.6876,0.6877,0.6877,0.6878,0.6878,0.6878,0,0,0,0,0,0,0,0.6801,0.6803,0.6823,0.6824,0.6825,0.6829,0.6832,0.6837,0.6851,0.6843,0.6844,0.6847,0.6864,0.6867,0.6869,0.6877,0.6877,0.6878,0.6878,0.6878,0.6886,0.6886,0,0,0,0,0,0,0.6798,0.6802,0.6822,0.6824,0.6814,0.683,0.6832,0.6836,0.6851,0.6854,0.6847,0.6847,0.6866,0.6868,0.687,0.6871,0.6878,0.6878,0.6879,0.6886,0.6886,0.6886,0,0,0,0,0,0,0.6798,0.68,0.6822,0.6813,0.6816,0.683,0.6834,0.6837,0.684,0.6854,0.6856,0.6848,0.6866,0.6869,0.6874,0.6871,0.6879,0.6879,0.6887,0.6886,0.6886,0.6872,0,0,0,0,0,0,0.6797,0.68,0.68,0.6813,0.6817,0.6825,0.6834,0.6837,0.6842,0.6843,0.6856,0.6858,0.6867,0.6872,0.6874,0.6873,0.688,0.6887,0.6887,0.6886,0.6873,0.6872,0.687,0,0,0,0,0,0.6796,0.6795,0.68,0.6802,0.6817,0.6825,0.6827,0.6837,0.6841,0.6842,0.685,0.6858,0.6871,0.6873,0.6875,0.6873,0.6887,0.6887,0.6886,0.6874,0.6872,0.687,0,0,0,0,0,0,0.6781,0.6797,0.6802,0.6806,0.6814,0.6828,0.6828,0.6835,0.6842,0.6843,0.6856,0.6858,0.6862,0.6868,0.6869,0.6874,0.688,0.688,0.687,0.6868,0.6867,0.6865,0.688,0,0,0,0,0,0.6778,0.6783,0.6797,0.6799,0.6802,0.6815,0.6818,0.6826,0.6834,0.6838,0.6847,0.6855,0.6861,0.6865,0.6872,0.6874,0.6877,0.6874,0.6873,0.6872,0.6871,0.6873,0.6872,0.6885,0.6885,0.6885,0,0,0.6772,0.6781,0.6784,0.6796,0.6803,0.6808,0.6817,0.6822,0.6826,0.6839,0.6844,0.6851,0.6861,0.6864,0.6866,0.687,0.6868,0.6871,0.687,0.687,0.6872,0.6871,0.687,0.6884,0.6884,0.6884,0,0,0.6764,0.6771,0.6774,0.6781,0.6792,0.68,0.68,0.6813,0.6818,0.6823,0.6833,0.6838,0.6848,0.6855,0.686,0.6854,0.6861,0.6856,0.6849,0.685,0.6849,0.6848,0.6846,0.6845,0.6856,0.6856,0.6856,0,0.6755,0.6763,0.6774,0.6778,0.6783,0.6795,0.6798,0.6804,0.6816,0.6819,0.6823,0.6836,0.6844,0.6849,0.6848,0.6851,0.6852,0.6854,0.6849,0.6848,0.6847,0.6845,0.6844,0.6855,0.6855,0.6855,0.6855,0,0.6751,0.6757,0.6757,0.6769,0.6774,0.6777,0.6789,0.6793,0.68,0.6807,0.6813,0.6822,0.6831,0.6833,0.6839,0.6839,0.6841,0.6846,0.6852,0.6845,0.6843,0.6843,0.6854,0.6854,0.6854,0.6855,0,0,0.6734,0.6752,0.6752,0.6757,0.677,0.6775,0.6778,0.6787,0.679,0.6798,0.6801,0.681,0.6815,0.6821,0.6828,0.683,0.6824,0.6835,0.6836,0.6833,0.6824,0.682,0.6819,0.6829,0.6829,0.6829,0.6823,0,0.6728,0.6735,0.6746,0.675,0.6755,0.6766,0.677,0.6778,0.6785,0.679,0.6798,0.6804,0.6811,0.6814,0.6816,0.6825,0.6823,0.6825,0.6832,0.6832,0.6829,0.6818,0.6813,0.6808,0.6823,0.6823,0.6823,0,0.6721,0.6729,0.6733,0.6746,0.6748,0.6751,0.676,0.6765,0.6774,0.6779,0.6785,0.6794,0.6798,0.6804,0.681,0.6812,0.6815,0.682,0.682,0.6821,0.6827,0.6818,0.6806,0.6805,0.6822,0.6822,0.6822,0,0.6708,0.6719,0.6723,0.6728,0.6742,0.6744,0.675,0.676,0.6764,0.6772,0.6775,0.6783,0.6787,0.6793,0.6803,0.6807,0.6808,0.6815,0.6813,0.6813,0.6813,0.6812,0.68,0.6815,0.6815,0.6815,0.6815,0,0.6699,0.6701,0.6717,0.672,0.6723,0.6735,0.6737,0.6745,0.6753,0.6757,0.6768,0.6771,0.6785,0.679,0.6798,0.6802,0.6804,0.6808,0.681,0.6807,0.6806,0.6809,0.681,0.6815,0.6815,0.6815,0.6815,0,0.6685,0.6695,0.6701,0.6714,0.6718,0.6719,0.6731,0.6734,0.6742,0.6747,0.6749,0.6761,0.6768,0.6779,0.6788,0.6794,0.6796,0.68,0.6793,0.6794,0.6791,0.6791,0.6781,0.678,0.6795,0.6795,0.6795,0,0.6678,0.668,0.6694,0.6698,0.6704,0.6709,0.6714,0.6726,0.673,0.6741,0.6743,0.675,0.6757,0.6767,0.6777,0.6784,0.6788,0.6784,0.6789,0.6786,0.6788,0.6787,0.6788,0.6782,0.6782,0.6782,0.6782,0,0.6666,0.6671,0.6678,0.6686,0.6691,0.6698,0.6706,0.6708,0.6722,0.6726,0.6733,0.6738,0.6748,0.6756,0.6765,0.6771,0.6778,0.678,0.678,0.6777,0.6772,0.6774,0.6789,0.678,0.678,0.678,0.6781,0.6781,0.6655,0.6658,0.6668,0.6675,0.6682,0.6688,0.6692,0.67,0.6706,0.6716,0.6722,0.6729,0.6738,0.6751,0.6757,0.6762,0.6766,0.6765,0.6765,0.6765,0.6764,0.6772,0.6764,0.6764,0.6764,0.6764,0.6764,0,0.6643,0.6651,0.6657,0.6667,0.6672,0.6679,0.6688,0.6692,0.6698,0.6706,0.6712,0.672,0.6727,0.6738,0.6746,0.6748,0.6752,0.675,0.675,0.6751,0.676,0.676,0.6747,0.6747,0.6747,0.6747,0.6747,0.6747,0.6638,0.6642,0.6649,0.6657,0.6664,0.667,0.6675,0.6681,0.6688,0.6696,0.6702,0.6709,0.6718,0.6727,0.6734,0.6737,0.6739,0.6736,0.674,0.6749,0.675,0.6752,0.6751,0.6737,0.6737,0.673,0.673,0.673]}]]